パンスターズ彗星

C/2017 K2 ( PanSTARRS )

English version
Home page
Updated on January 8, 2018

---------------------------------------------------------------------

・ プロフィール

発見日 2017年5月21日
発見光度 20.8等
発見者 Pan-STARRS 1 telescope (Haleakala)

・ 写真集

・ 軌道要素

Epoch 2022 Dec. 7.0 TT = JDT 2459920.5
T 2022 Dec. 19.63469 TT                                 MPCW
q   1.7969888            (2000.0)            P               Q
z  -0.0004848      Peri.  236.19518     +0.01816977     +0.04924750
 +/-0.0000091      Node    88.23429     -0.18098260     +0.98244905
e   1.0008711      Incl.   87.56318     -0.98331844     -0.17991259
From 385 observations 2013 May 12-2017 Nov. 29, mean residual 0".5.

・ 星図

・ 光度変化

        m1 = 1.0 + 5 logΔ + 10.0 log r

---------------------------------------------------------------------

軌道要素はM.P.E.C. 2017-X08に掲載されたものです。
星図はステラナビゲータ Ver.10 (アストロアーツ) で作成したものです。
光度グラフはComet for Windowsで作成したものです。

---------------------------------------------------------------------

Copyright(C) Seiichi Yoshida (comet@aerith.net). All rights reserved.